Lumberton, NC

2:31 AM EST on January 17, 2018 (GMT -0500)
Lumberton Municipal

Weather History for KLBT - March, 2011

Change the Weather History Date:

Saturday, March 5, 2011

  Actual Average Record
Temperature  
Mean Temperature 57 °F 51 °F  
Max Temperature 69 °F 63 °F 79 °F (2004)
Min Temperature 44 °F 39 °F 21 °F (2002)
Degree Days  
Heating Degree Days 8 14  
Month to date heating degree days 76 73  
Since 1 July heating degree days 2580 2303  
Cooling Degree Days 0 0  
Month to date cooling degree days 0 0  
Year to date cooling degree days 9 3  
Growing Degree Days 6 (Base 50)    
Moisture  
Dew Point 49 °F    
Average Humidity 75    
Maximum Humidity 100    
Minimum Humidity 49    
Precipitation  
Precipitation 0.01 in 0.10 in 0.43 in (2015)
Month to date precipitation 0.03 0.56  
Year to date precipitation 4.69 6.43  
Sea Level Pressure  
Sea Level Pressure 30.26 in    
Wind  
Wind Speed 8 mph (SE)    
Max Wind Speed 17 mph    
Max Gust Speed 24 mph    
Visibility 9 miles    
Events      
T = Trace of Precipitation, MM = Missing Value Source: NWS Daily Summary

Daily Weather History Graph

Daily Weather History Graph

Search for Another Location

Airport or City:

Trip Planner

Search our weather history database for the weather conditions in past years. The results will help you decide how hot, cold, wet, or windy it might be!

Date:

Astronomy

Mar. 05, 2011 Rise Set
Actual Time 6:40 AM EST 6:15 PM EST
Civil Twilight 6:15 AM EST 6:40 PM EST
Nautical Twilight 5:46 AM EST 7:09 PM EST
Astronomical Twilight 5:17 AM EST 7:39 PM EST
Moon 6:41 AM EST (3/5) 7:14 PM EST (3/5)
Length of Visible Light 12h 25m
Length of Day
11h 34m
New Moon, 1% of the Moon is Illuminated
Mar 5
New Moon
Mar 12
First Quarter
Mar 19
Full
Mar 26
Last Quarter
Apr 3
New

Hourly Weather History & Observations

Time (EST) Temp. Windchill Dew Point Humidity Pressure Visibility Wind Dir Wind Speed Gust Speed Precip Events Conditions
12:54 AM 48.0 °F - 43.0 °F 83% 30.41 in 10.0 mi East 5.8 mph - N/A   Scattered Clouds
1:54 AM 46.9 °F - 43.0 °F 86% 30.40 in 10.0 mi ESE 5.8 mph - N/A   Scattered Clouds
2:54 AM 46.9 °F - 44.1 °F 90% 30.36 in 10.0 mi East 4.6 mph - N/A   Clear
3:54 AM 45.0 °F 43.5 °F 43.0 °F 93% 30.35 in 9.0 mi NE 3.5 mph - N/A   Partly Cloudy
4:54 AM 45.0 °F 43.5 °F 44.1 °F 97% 30.36 in 7.0 mi NE 3.5 mph - N/A   Mostly Cloudy
5:54 AM 44.1 °F 41.5 °F 43.0 °F 96% 30.35 in 5.0 mi ENE 4.6 mph - N/A   Clear
6:54 AM 44.1 °F 42.5 °F 43.0 °F 96% 30.35 in 5.0 mi ENE 3.5 mph - N/A   Clear
7:54 AM 48.0 °F - 45.0 °F 89% 30.35 in 9.0 mi Calm Calm - N/A   Clear
8:54 AM 55.0 °F - 48.0 °F 77% 30.34 in 10.0 mi SE 5.8 mph - N/A   Clear
9:54 AM 63.0 °F - 48.9 °F 60% 30.33 in 10.0 mi SE 11.5 mph 17.3 mph N/A   Overcast
10:54 AM 66.9 °F - 48.9 °F 52% 30.32 in 10.0 mi SSE 12.7 mph 19.6 mph N/A   Overcast
11:54 AM 66.9 °F - 48.0 °F 51% 30.30 in 10.0 mi SSE 13.8 mph 23.0 mph N/A   Overcast
12:54 PM 68.0 °F - 48.0 °F 49% 30.27 in 10.0 mi SSE 9.2 mph - N/A   Overcast
1:54 PM 68.0 °F - 48.9 °F 50% 30.22 in 10.0 mi SSE 13.8 mph 19.6 mph N/A   Overcast
2:54 PM 68.0 °F - 48.9 °F 50% 30.19 in 10.0 mi SSE 13.8 mph 19.6 mph N/A   Mostly Cloudy
3:54 PM 68.0 °F - 50.0 °F 52% 30.19 in 10.0 mi SSE 9.2 mph - N/A   Overcast
4:54 PM 66.9 °F - 51.1 °F 57% 30.16 in 10.0 mi SSE 12.7 mph - N/A   Scattered Clouds
5:54 PM 64.9 °F - 52.0 °F 63% 30.16 in 10.0 mi SSE 11.5 mph 18.4 mph N/A   Mostly Cloudy
6:54 PM 63.0 °F - 53.1 °F 70% 30.15 in 10.0 mi SE 6.9 mph - N/A   Partly Cloudy
7:54 PM 61.0 °F - 54.0 °F 78% 30.14 in 10.0 mi SE 6.9 mph - N/A   Clear
8:54 PM 61.0 °F - 54.0 °F 78% 30.15 in 10.0 mi SE 6.9 mph - N/A   Partly Cloudy
9:54 PM 60.1 °F - 55.0 °F 83% 30.12 in 10.0 mi SE 8.1 mph - N/A   Clear
10:54 PM 60.1 °F - 55.9 °F 86% 30.11 in 10.0 mi SE 8.1 mph - N/A   Mostly Cloudy
11:54 PM 57.9 °F - 57.0 °F 97% 30.07 in 10.0 mi SE 5.8 mph - 0.01 in   Mostly Cloudy